Waskish, MN

9:07 PM CST on February 19, 2017 (GMT -0600)
Waskish Municipal

Weather History for KVWU - September, 2012

Change the Weather History Date:

Monday, September 17, 2012

  Actual Average (KBDE) Record (KBDE)
Temperature  
Mean Temperature 48 °F -  
Max Temperature 59 °F 68 °F 87 °F (1998)
Min Temperature 37 °F 44 °F 25 °F (1959)
Degree Days  
Heating Degree Days 17    
Moisture  
Dew Point 37 °F    
Average Humidity 71    
Maximum Humidity 100    
Minimum Humidity 39    
Precipitation  
Precipitation 0.00 in - - ()
Sea Level Pressure  
Sea Level Pressure 30.03 in    
Wind  
Wind Speed 7 mph (NW)    
Max Wind Speed 15 mph    
Max Gust Speed 22 mph    
Visibility 10 miles    
Events Rain    
Averages and records for this station are not official NWS values.
T = Trace of Precipitation, MM = Missing Value Source: NWS Daily Summary

Daily Weather History Graph

Daily Weather History Graph

Search for Another Location

Airport or City:

Trip Planner

Search our weather history database for the weather conditions in past years. The results will help you decide how hot, cold, wet, or windy it might be!

Date:

Astronomy

Sep. 17, 2012 Rise Set
Actual Time 6:58 AM CDT 7:25 PM CDT
Civil Twilight 6:27 AM CDT 7:56 PM CDT
Nautical Twilight 5:50 AM CDT 8:33 PM CDT
Astronomical Twilight 5:11 AM CDT 9:11 PM CDT
Moon 9:02 AM CDT (9/17) 7:52 PM CDT (9/17)
Length of Visible Light 13h 29m
Length of Day
12h 26m
Waxing Crescent, 3% of the Moon is Illuminated
Sep 17
Waxing Crescent
Sep 22
First Quarter
Sep 29
Full
Oct 8
Last Quarter
Oct 15
New

Hourly Weather History & Observations

Time (CDT) Temp. Windchill Dew Point Humidity Pressure Visibility Wind Dir Wind Speed Gust Speed Precip Events Conditions
12:14 AM 48.2 °F - 39.2 °F 71% 30.04 in 10.0 mi NW 9.2 mph 16.1 mph N/A   Clear
12:35 AM 48.2 °F - 39.2 °F 71% 30.03 in 10.0 mi NW 8.1 mph - N/A   Mostly Cloudy
12:54 AM 46.4 °F 42.4 °F 39.2 °F 76% 30.03 in 10.0 mi NNW 8.1 mph - N/A   Mostly Cloudy
1:14 AM 46.4 °F 41.9 °F 39.2 °F 76% 30.03 in 10.0 mi NNW 9.2 mph - N/A   Mostly Cloudy
1:35 AM 44.6 °F 40.2 °F 39.2 °F 81% 30.02 in 10.0 mi NW 8.1 mph 16.1 mph N/A   Scattered Clouds
1:54 AM 44.6 °F 39.7 °F 39.2 °F 81% 30.02 in 10.0 mi NW 9.2 mph - N/A   Scattered Clouds
2:14 AM 44.6 °F 38.8 °F 39.2 °F 81% 30.02 in 10.0 mi NW 11.5 mph 16.1 mph N/A   Scattered Clouds
2:35 AM 42.8 °F 37.5 °F 39.2 °F 87% 30.01 in 10.0 mi NW 9.2 mph - N/A   Clear
2:54 AM 42.8 °F 38.6 °F 37.4 °F 81% 30.01 in 10.0 mi NNW 6.9 mph - N/A   Clear
3:14 AM 41.0 °F 35.8 °F 37.4 °F 87% 30.02 in 10.0 mi NW 8.1 mph - N/A   Clear
3:35 AM 42.8 °F 37.5 °F 39.2 °F 87% 30.02 in 10.0 mi NW 9.2 mph - N/A   Clear
3:54 AM 41.0 °F 37.1 °F 37.4 °F 87% 30.02 in 10.0 mi NNW 5.8 mph - N/A   Clear
4:14 AM 39.2 °F 35.9 °F 35.6 °F 87% 30.03 in 10.0 mi NNW 4.6 mph - N/A   Clear
4:34 AM 39.2 °F 35.9 °F 37.4 °F 93% 30.03 in 10.0 mi NW 4.6 mph - N/A   Clear
4:54 AM 39.2 °F - 37.4 °F 93% 30.03 in 10.0 mi Calm Calm - N/A   Clear
5:14 AM 39.2 °F 37.0 °F 37.4 °F 93% 30.03 in 10.0 mi NNW 3.5 mph - N/A   Scattered Clouds
5:34 AM 39.2 °F - 37.4 °F 93% 30.03 in 10.0 mi Calm Calm - N/A   Mostly Cloudy
5:54 AM 37.4 °F - 35.6 °F 93% 30.04 in 10.0 mi Calm Calm - N/A   Scattered Clouds
6:14 AM 37.4 °F 34.9 °F 35.6 °F 93% 30.04 in 10.0 mi NNW 3.5 mph - N/A   Scattered Clouds
6:34 AM 37.4 °F - 37.4 °F 100% 30.04 in 10.0 mi Calm Calm - N/A   Scattered Clouds
6:54 AM 37.4 °F - 37.4 °F 100% 30.05 in 10.0 mi Calm Calm - N/A   Mostly Cloudy
7:14 AM 37.4 °F - 37.4 °F 100% 30.05 in 10.0 mi Calm Calm - N/A   Overcast
7:34 AM 39.2 °F - 37.4 °F 93% 30.05 in 10.0 mi Calm Calm - N/A   Overcast
7:54 AM 39.2 °F - 37.4 °F 93% 30.05 in 10.0 mi Calm Calm - N/A   Overcast
8:14 AM 39.2 °F - 37.4 °F 93% 30.05 in 10.0 mi Calm Calm - N/A   Mostly Cloudy
8:34 AM 41.0 °F 39.0 °F 39.2 °F 93% 30.05 in 10.0 mi NW 3.5 mph - N/A   Mostly Cloudy
8:54 AM 42.8 °F 41.1 °F 41.0 °F 93% 30.05 in 10.0 mi NNW 3.5 mph - N/A   Overcast
9:15 AM 48.2 °F - 41.0 °F 76% 30.05 in 10.0 mi North 3.5 mph - N/A   Overcast
9:34 AM 50.0 °F - 39.2 °F 66% 30.05 in 10.0 mi NNW 6.9 mph - N/A   Overcast
9:54 AM 48.2 °F - 37.4 °F 66% 30.05 in 10.0 mi NW 5.8 mph - N/A   Overcast
10:15 AM 50.0 °F - 37.4 °F 62% 30.05 in 10.0 mi NNW 4.6 mph - N/A   Mostly Cloudy
10:34 AM 53.6 °F - 37.4 °F 54% 30.05 in 10.0 mi NW 6.9 mph - N/A   Scattered Clouds
10:54 AM 53.6 °F - 37.4 °F 54% 30.05 in 10.0 mi NW 9.2 mph - N/A   Scattered Clouds
11:15 AM 51.8 °F - 35.6 °F 54% 30.05 in 10.0 mi NNW 8.1 mph - N/A   Mostly Cloudy
11:34 AM 53.6 °F - 35.6 °F 51% 30.05 in 10.0 mi NW 9.2 mph 17.3 mph N/A   Mostly Cloudy
11:54 AM 53.6 °F - 35.6 °F 51% 30.04 in 10.0 mi NW 8.1 mph 16.1 mph N/A   Scattered Clouds
12:15 PM 55.4 °F - 33.8 °F 44% 30.04 in 10.0 mi NW 10.4 mph - N/A   Scattered Clouds
12:34 PM 55.4 °F - 35.6 °F 47% 30.03 in 10.0 mi WNW 8.1 mph 16.1 mph N/A   Scattered Clouds
12:54 PM 55.4 °F - 35.6 °F 47% 30.03 in 10.0 mi WNW 5.8 mph - N/A   Scattered Clouds
1:15 PM 55.4 °F - 35.6 °F 47% 30.03 in 10.0 mi WNW 8.1 mph - N/A   Mostly Cloudy
1:34 PM 53.6 °F - 35.6 °F 51% 30.03 in 10.0 mi WNW 9.2 mph - N/A Rain Light Rain
1:54 PM 53.6 °F - 35.6 °F 51% 30.02 in 10.0 mi WNW 9.2 mph - N/A   Mostly Cloudy
2:14 PM 55.4 °F - 33.8 °F 44% 30.02 in 10.0 mi NW 10.4 mph 16.1 mph N/A   Scattered Clouds
2:34 PM 55.4 °F - 35.6 °F 47% 30.01 in 10.0 mi WNW 8.1 mph - N/A   Scattered Clouds
2:54 PM 55.4 °F - 33.8 °F 44% 30.01 in 10.0 mi NW 6.9 mph - N/A   Mostly Cloudy
3:15 PM 55.4 °F - 33.8 °F 44% 30.01 in 10.0 mi WNW 8.1 mph - N/A   Scattered Clouds
3:34 PM 57.2 °F - 33.8 °F 41% 30.00 in 10.0 mi West 8.1 mph - N/A   Scattered Clouds
3:54 PM 59.0 °F - 33.8 °F 39% 30.00 in 10.0 mi West 9.2 mph - N/A   Overcast
4:14 PM 57.2 °F - 33.8 °F 41% 29.99 in 10.0 mi West 9.2 mph 16.1 mph N/A   Overcast
4:34 PM 53.6 °F - 32.0 °F 44% 30.01 in 10.0 mi NNW 15.0 mph 20.7 mph N/A   Mostly Cloudy
4:54 PM 48.2 °F - 35.6 °F 62% 30.01 in 10.0 mi North 13.8 mph 21.9 mph N/A   Overcast
5:14 PM 48.2 °F - 35.6 °F 62% 30.01 in 10.0 mi North 8.1 mph 18.4 mph N/A   Overcast
5:34 PM 50.0 °F - 35.6 °F 58% 30.02 in 10.0 mi NNW 5.8 mph - N/A   Overcast
5:54 PM 48.2 °F - 35.6 °F 62% 30.02 in 10.0 mi NW 8.1 mph - N/A   Overcast
6:14 PM 48.2 °F - 37.4 °F 66% 30.02 in 10.0 mi WNW 11.5 mph 18.4 mph N/A   Overcast
6:34 PM 48.2 °F - 35.6 °F 62% 30.02 in 10.0 mi WNW 8.1 mph - N/A   Overcast
6:54 PM 48.2 °F - 37.4 °F 66% 30.02 in 10.0 mi NW 9.2 mph - N/A   Scattered Clouds
7:14 PM 48.2 °F - 37.4 °F 66% 30.02 in 10.0 mi NW 6.9 mph - N/A   Scattered Clouds
7:34 PM 44.6 °F - 35.6 °F 71% 30.02 in 10.0 mi Calm Calm - N/A   Scattered Clouds
7:54 PM 44.6 °F - 35.6 °F 71% 30.02 in 10.0 mi Calm Calm - N/A   Scattered Clouds
8:14 PM 44.6 °F 41.4 °F 37.4 °F 76% 30.02 in 10.0 mi NW 5.8 mph - N/A   Scattered Clouds
8:34 PM 44.6 °F 41.4 °F 37.4 °F 76% 30.02 in 10.0 mi NW 5.8 mph - N/A   Scattered Clouds
8:54 PM 44.6 °F 40.7 °F 37.4 °F 76% 30.02 in 10.0 mi NW 6.9 mph - N/A   Clear
9:14 PM 44.6 °F 39.7 °F 37.4 °F 76% 30.02 in 10.0 mi NW 9.2 mph - N/A   Clear
9:34 PM 44.6 °F 39.7 °F 37.4 °F 76% 30.03 in 10.0 mi NW 9.2 mph - N/A   Scattered Clouds
9:54 PM 44.6 °F 39.7 °F 37.4 °F 76% 30.03 in 10.0 mi NW 9.2 mph - N/A   Scattered Clouds
10:14 PM 41.0 °F 37.1 °F 35.6 °F 81% 30.02 in 10.0 mi NNW 5.8 mph - N/A   Clear
10:34 PM 39.2 °F 37.0 °F 35.6 °F 87% 30.02 in 10.0 mi NNW 3.5 mph - N/A   Clear
11:14 PM 42.8 °F 40.1 °F 35.6 °F 76% 30.02 in 10.0 mi NW 4.6 mph - N/A   Clear
11:35 PM 42.8 °F 39.3 °F 35.6 °F 76% 30.02 in 10.0 mi NNW 5.8 mph - N/A   Clear
11:54 PM 42.8 °F 39.3 °F 35.6 °F 76% 30.02 in 10.0 mi NW 5.8 mph - N/A   Clear